sat.trackr.live / text

‹ back to catalog

STARLINK-32859

NORAD 62861 · 2025-022H

PAYLOAD ACTIVE UNKNOWN

§ Identity

Operator
Country
US
Launch date
2025-02-01
Launch site
AFWTR
Launch vehicle
Mass (kg)
RCS (m²)

Purposes: comms

External: N2YO · Heavens-Above · Gunter

§ Orbital elements

Epoch: 2026-05-25T05:24:58.599072Z

Period
94.10 min
Inclination
53.1607°
Eccentricity
0.0001421
Mean motion
15.30210562 rev/d
Perigee alt
474.2 km
Apogee alt
476.2 km
Semi-major
6,853.3 km
B*
4.2502e-4
RAAN
134.4275°
Arg perigee
86.6729°
Mean anomaly
273.4434°
Rev number
7,361

§ Raw data

STARLINK-328591 62861U 25022H   26145.22567823  .00012254  00000+0  42502-3 0  99962 62861  53.1607 134.4275 0001421  86.6729 273.4434 15.30210562 73618

JSON: /api/v1/satellites/62861 · /tle

For live sub-satellite position, see the globe view (requires WebGL).

§ Visibility from observer

Set your observer location to see the next 7 days of passes ≥ 10°. The values pass through the URL so the page stays shareable.

No JS? Fill the form by hand. The geolocation button needs JavaScript.